St. Paul Lake Elmo, MN

7:22 AM CDT on May 25, 2017 (GMT -0500)
St. Paul Lake Elmo

Weather History for K21D - April, 2014

Change the Weather History Date:

Thursday, April 24, 2014

  Actual Average (KSTP) Record (KSTP)
Temperature  
Mean Temperature 40 °F -  
Max Temperature 42 °F 60 °F 75 °F (1998)
Min Temperature 37 °F 38 °F 28 °F (2013)
Degree Days  
Heating Degree Days 26    
Moisture  
Dew Point 39 °F    
Average Humidity 92    
Maximum Humidity 100    
Minimum Humidity 81    
Precipitation  
Precipitation 0.39 in - - ()
Sea Level Pressure  
Sea Level Pressure 29.78 in    
Wind  
Wind Speed 8 mph (ESE)    
Max Wind Speed 14 mph    
Max Gust Speed 21 mph    
Visibility 7 miles    
Events Rain    
Averages and records for this station are not official NWS values.
T = Trace of Precipitation, MM = Missing Value Source: NWS Daily Summary

Daily Weather History Graph

Daily Weather History Graph

Search for Another Location

Airport or City:

Trip Planner

Search our weather history database for the weather conditions in past years. The results will help you decide how hot, cold, wet, or windy it might be!

Date:

Astronomy

Apr. 24, 2014 Rise Set
Actual Time 6:11 AM CDT 8:08 PM CDT
Civil Twilight 5:40 AM CDT 8:40 PM CDT
Nautical Twilight 5:01 AM CDT 9:18 PM CDT
Astronomical Twilight 4:19 AM CDT 10:01 PM CDT
Moon 3:36 AM CDT (4/24) 3:12 PM CDT (4/24)
Length of Visible Light 14h 59m
Length of Day
13h 56m
Waning Crescent, 24% of the Moon is Illuminated
Apr 24
Waning Crescent
Apr 29
New
May 6
First Quarter
May 14
Full
May 21
Last Quarter

Hourly Weather History & Observations

Time (CDT) Temp. Windchill Dew Point Humidity Pressure Visibility Wind Dir Wind Speed Gust Speed Precip Events Conditions
12:11 AM 42.8 °F 37.0 °F 37.4 °F 81% 29.95 in 10.0 mi East 10.4 mph - N/A   Overcast
12:31 AM 42.8 °F 38.0 °F 37.4 °F 81% 29.95 in 10.0 mi ESE 8.1 mph 16.1 mph N/A   Overcast
12:51 AM 42.8 °F 37.0 °F 37.4 °F 81% 29.95 in 10.0 mi ESE 10.4 mph - N/A   Overcast
1:11 AM 42.8 °F 36.6 °F 37.4 °F 81% 29.92 in 10.0 mi ESE 11.5 mph - N/A   Overcast
1:31 AM 42.8 °F 36.2 °F 37.4 °F 81% 29.91 in 10.0 mi ESE 12.7 mph 20.7 mph N/A   Overcast
1:51 AM 42.8 °F 35.8 °F 37.4 °F 81% 29.91 in 10.0 mi ESE 13.8 mph 17.3 mph N/A   Overcast
2:31 AM 42.8 °F 38.0 °F 37.4 °F 81% 29.90 in 10.0 mi ESE 8.1 mph - N/A   Overcast
2:51 AM 42.8 °F 37.0 °F 37.4 °F 81% 29.90 in 10.0 mi ESE 10.4 mph - N/A   Overcast
3:10 AM 42.8 °F 36.6 °F 37.4 °F 81% 29.89 in 10.0 mi ESE 11.5 mph 16.1 mph N/A   Overcast
3:31 AM 42.8 °F 37.5 °F 39.2 °F 87% 29.89 in 7.0 mi ESE 9.2 mph - N/A   Overcast
3:51 AM 42.8 °F 38.0 °F 39.2 °F 87% 29.88 in 7.0 mi ESE 8.1 mph - N/A   Overcast
4:11 AM 42.8 °F 37.5 °F 39.2 °F 87% 29.87 in 7.0 mi ESE 9.2 mph - N/A   Overcast
4:31 AM 42.8 °F 37.5 °F 39.2 °F 87% 29.87 in 4.0 mi ESE 9.2 mph - N/A Rain Light Rain
4:51 AM 41.0 °F 34.3 °F 39.2 °F 93% 29.86 in 5.0 mi ESE 11.5 mph - N/A Rain Light Rain
5:31 AM 41.0 °F 34.7 °F 39.2 °F 93% 29.84 in 7.0 mi ESE 10.4 mph - N/A Rain Light Rain
5:51 AM 41.0 °F 33.5 °F 39.2 °F 93% 29.84 in 10.0 mi ESE 13.8 mph 20.7 mph 0.01 in   Light Drizzle
6:11 AM 41.0 °F 34.7 °F 37.4 °F 87% 29.84 in 10.0 mi East 10.4 mph - N/A Rain Light Rain
6:31 AM 41.0 °F 34.7 °F 37.4 °F 87% 29.84 in 7.0 mi ESE 10.4 mph 16.1 mph N/A Rain Light Rain
6:51 AM 39.2 °F 32.5 °F 37.4 °F 93% 29.85 in 7.0 mi ESE 10.4 mph - N/A Rain Light Rain
7:11 AM 39.2 °F 33.6 °F 37.4 °F 93% 29.84 in 7.0 mi East 8.1 mph - N/A Rain Light Rain
7:31 AM 39.2 °F 31.6 °F 37.4 °F 93% 29.84 in 3.0 mi East 12.7 mph 17.3 mph 0.03 in Rain Rain
7:50 AM 39.2 °F 32.0 °F 37.4 °F 93% 29.83 in 4.0 mi East 11.5 mph - 0.08 in Rain Light Rain
8:11 AM 39.2 °F 31.6 °F 37.4 °F 93% 29.82 in 5.0 mi East 12.7 mph 16.1 mph 0.02 in Rain Light Rain
8:31 AM 39.2 °F 33.0 °F 37.4 °F 93% 29.81 in 5.0 mi East 9.2 mph - 0.03 in Rain Rain
8:50 AM 39.2 °F 33.6 °F 37.4 °F 93% 29.81 in 5.0 mi East 8.1 mph - 0.05 in Rain Light Rain
9:11 AM 39.2 °F 33.0 °F 37.4 °F 93% 29.80 in 4.0 mi East 9.2 mph 16.1 mph 0.02 in Rain Rain
9:31 AM 39.2 °F 33.6 °F 37.4 °F 93% 29.79 in 5.0 mi East 8.1 mph - 0.05 in Rain Light Rain
9:50 AM 39.2 °F 34.2 °F 37.4 °F 93% 29.80 in 3.0 mi East 6.9 mph - 0.08 in Rain Rain
10:11 AM 39.2 °F 33.6 °F 37.4 °F 93% 29.79 in 4.0 mi East 8.1 mph - 0.02 in Rain Rain
10:31 AM 39.2 °F 34.2 °F 37.4 °F 93% 29.78 in 4.0 mi East 6.9 mph - 0.05 in Rain Light Rain
10:51 AM 41.0 °F 37.1 °F 39.2 °F 93% 29.78 in 3.0 mi East 5.8 mph - 0.09 in Rain Rain
11:11 AM 41.0 °F 36.4 °F 39.2 °F 93% 29.77 in 4.0 mi ENE 6.9 mph - 0.02 in Rain Rain
11:31 AM 41.0 °F 36.4 °F 39.2 °F 93% 29.76 in 5.0 mi ENE 6.9 mph - 0.04 in Rain Light Rain
11:51 AM 41.0 °F 37.1 °F 39.2 °F 93% 29.76 in 7.0 mi East 5.8 mph - 0.05 in Rain Rain
12:11 PM 41.0 °F 37.1 °F 39.2 °F 93% 29.75 in 7.0 mi East 5.8 mph - N/A   Drizzle
12:30 PM 41.0 °F 36.4 °F 39.2 °F 93% 29.74 in 7.0 mi East 6.9 mph - 0.01 in   Light Drizzle
12:51 PM 41.0 °F 38.0 °F 41.0 °F 100% 29.73 in 5.0 mi East 4.6 mph - 0.01 in   Light Drizzle
1:11 PM 41.0 °F 38.0 °F 41.0 °F 100% 29.73 in 5.0 mi East 4.6 mph - N/A   Light Drizzle
1:51 PM 41.0 °F 38.0 °F 41.0 °F 100% 29.71 in 3.0 mi East 4.6 mph - 0.01 in   Drizzle
2:10 PM 41.0 °F 39.0 °F 41.0 °F 100% 29.71 in 2.5 mi East 3.5 mph - N/A   Drizzle
2:31 PM 41.0 °F 39.0 °F 41.0 °F 100% 29.71 in 2.5 mi East 3.5 mph - 0.01 in   Drizzle
2:51 PM 42.8 °F 41.1 °F 41.0 °F 93% 29.70 in 3.0 mi East 3.5 mph - 0.01 in   Drizzle
3:10 PM 42.8 °F 41.1 °F 41.0 °F 93% 29.70 in 5.0 mi ESE 3.5 mph - N/A   Overcast
3:31 PM 42.8 °F 40.1 °F 41.0 °F 93% 29.69 in 7.0 mi SE 4.6 mph - N/A   Overcast
3:51 PM 42.8 °F - 41.0 °F 93% 29.68 in 10.0 mi Calm Calm - N/A   Overcast
4:10 PM 42.8 °F 41.1 °F 41.0 °F 93% 29.68 in 10.0 mi ESE 3.5 mph - N/A   Overcast
4:31 PM 42.8 °F 41.1 °F 41.0 °F 93% 29.68 in 10.0 mi South 3.5 mph - N/A   Overcast
4:51 PM 42.8 °F 41.1 °F 41.0 °F 93% 29.68 in 10.0 mi SSW 3.5 mph - N/A   Overcast
5:11 PM 42.8 °F 41.1 °F 41.0 °F 93% 29.68 in 4.0 mi SW 3.5 mph - N/A   Overcast
5:31 PM 42.8 °F 40.1 °F 42.8 °F 100% 29.69 in 5.0 mi WSW 4.6 mph - N/A   Overcast
5:50 PM 42.8 °F - 41.0 °F 93% 29.69 in 5.0 mi Calm Calm - N/A   Overcast
6:11 PM 42.8 °F 41.1 °F 42.8 °F 100% 29.70 in 5.0 mi West 3.5 mph - N/A   Overcast
6:31 PM 42.8 °F 41.1 °F 42.8 °F 100% 29.69 in 7.0 mi West 3.5 mph - N/A   Overcast
6:50 PM 42.8 °F - 42.8 °F 100% 29.69 in 5.0 mi Calm Calm - N/A   Overcast
7:11 PM 42.8 °F 41.1 °F 42.8 °F 100% 29.69 in 5.0 mi West 3.5 mph - N/A   Overcast
7:30 PM 42.8 °F 40.1 °F 42.8 °F 100% 29.70 in 5.0 mi WNW 4.6 mph - N/A   Overcast
7:51 PM 42.8 °F 38.0 °F 41.0 °F 93% 29.70 in 7.0 mi WNW 8.1 mph - N/A   Overcast
8:11 PM 42.8 °F 40.1 °F 41.0 °F 93% 29.70 in 7.0 mi West 4.6 mph - N/A   Overcast
8:30 PM 42.8 °F 40.1 °F 41.0 °F 93% 29.71 in 10.0 mi West 4.6 mph - N/A   Overcast
8:51 PM 42.8 °F 40.1 °F 41.0 °F 93% 29.72 in 10.0 mi WNW 4.6 mph - N/A   Overcast
9:11 PM 42.8 °F 40.1 °F 41.0 °F 93% 29.72 in 10.0 mi WNW 4.6 mph - N/A   Overcast
9:30 PM 42.8 °F 38.0 °F 41.0 °F 93% 29.72 in 10.0 mi WNW 8.1 mph - N/A   Overcast
9:51 PM 42.8 °F 40.1 °F 39.2 °F 87% 29.73 in 10.0 mi NW 4.6 mph - N/A   Overcast
10:11 PM 42.8 °F - 39.2 °F 87% 29.73 in 10.0 mi Calm Calm - N/A   Overcast
10:31 PM 42.8 °F 39.3 °F 39.2 °F 87% 29.73 in 10.0 mi WNW 5.8 mph - N/A   Overcast
10:51 PM 42.8 °F 39.3 °F 37.4 °F 81% 29.74 in 10.0 mi WNW 5.8 mph - N/A   Overcast
11:11 PM 41.0 °F - 37.4 °F 87% 29.73 in 10.0 mi Calm Calm - N/A   Scattered Clouds
11:31 PM 37.4 °F - 35.6 °F 93% 29.73 in 10.0 mi Calm Calm - N/A   Clear
11:51 PM 37.4 °F - 37.4 °F 100% 29.72 in 10.0 mi Calm Calm - N/A   Clear